Location: *
(32.8667°N, 13.1833°E)
Time: 22:06:51
(UTC+00:00)

Cosmos 1825 - Pass Details

Date: 18 July 2019
Orbit: 504 x 508 km, 82.5° (Epoch: 23 August)

Event Time Altitude Azimuth Distance (km) Brightness Sun altitude
Exits shadow 20:00:39 20° 61° (ENE) 1,207 3.9 -19.2°
Drops below altitude 10° 20:02:30 10° 36° (NE) 1,721 4.9 -19.5°
Sets 20:04:53 0° 22° (NNE) 2,610 6.1 -19.8°
